K9DC Weather Reports


Display with metric or nautical units.
time (UTC)temp
F
wind
direction
speed
MPH
gust
MPH
rain 1hr
in
rain 24hr
in
rain mn
in
humidity
%
barometer
mb
20260508231504 57 239 2.0 7.0 0.00 0.00 0.00 83 1008.5
20260508231004 57 244 2.0 6.0 0.00 0.00 0.00 83 1008.5
20260508230503 57 245 3.0 6.0 0.00 0.00 0.00 82 1008.6
20260508230004 58 247 2.0 8.0 0.00 0.00 0.00 82 1008.8
20260508225504 58 284 2.0 8.0 0.00 0.00 0.00 82 1009.0
20260508225004 58 336 1.0 4.0 0.00 0.00 0.00 82 1009.1
20260508224504 58 336 1.0 2.0 0.00 0.00 0.00 81 1008.8
20260508224003 58 336 0.0 2.0 0.00 0.00 0.00 81 1008.7
20260508223504 58 337 0.0 1.0 0.00 0.00 0.00 81 1008.7
20260508223004 58 337 0.0 1.0 0.00 0.00 0.00 81 1008.8
20260508222503 58 337 0.0 1.0 0.00 0.00 0.00 81 1008.9
20260508222003 58 336 0.0 2.0 0.00 0.00 0.00 80 1008.8
20260508221505 58 336 0.0 2.0 0.00 0.00 0.00 80 1008.9
20260508221004 58 336 1.0 4.0 0.00 0.00 0.00 80 1008.9
20260508220503 58 337 2.0 5.0 0.00 0.00 0.00 80 1008.9
20260508220004 58 337 2.0 5.0 0.00 0.00 0.00 79 1009.1
20260508215503 59 339 1.0 6.0 0.00 0.00 0.00 79 1009.0
20260508215004 59 318 3.0 9.0 0.00 0.00 0.00 78 1009.0
20260508214504 59 317 4.0 11.0 0.00 0.00 0.00 78 1009.1
20260508214004 59 318 5.0 11.0 0.00 0.00 0.00 76 1009.2
20260508213505 60 316 4.0 11.0 0.00 0.00 0.00 76 1009.1
20260508213005 60 314 2.0 10.0 0.00 0.00 0.00 74 1008.9
20260508212503 61 308 1.0 8.0 0.00 0.00 0.00 73 1008.8
20260508212004 61 311 2.0 8.0 0.00 0.00 0.00 72 1008.7
20260508211505 62 319 3.0 12.0 0.00 0.00 0.00 71 1008.7
20260508211003 63 320 5.0 12.0 0.00 0.00 0.00 69 1008.7
20260508210503 63 310 5.0 20.0 0.00 0.00 0.00 67 1008.7
20260508210003 64 293 4.0 20.0 0.00 0.00 0.00 65 1008.8
20260508205505 65 272 3.0 8.0 0.00 0.00 0.00 63 1008.6
20260508205003 65 264 3.0 8.0 0.00 0.00 0.00 61 1008.5
20260508204503 65 254 3.0 10.0 0.00 0.00 0.00 56 1008.3
20260508204005 66 251 3.0 10.0 0.00 0.00 0.00 55 1008.3
20260508203504 66 248 3.0 9.0 0.00 0.00 0.00 55 1008.3
20260508203004 66 244 3.0 10.0 0.00 0.00 0.00 52 1008.2
20260508202504 66 248 2.0 10.0 0.00 0.00 0.00 55 1008.4
20260508202003 66 251 3.0 11.0 0.00 0.00 0.00 50 1008.4
20260508201503 66 249 4.0 11.0 0.00 0.00 0.00 49 1008.4
20260508201003 66 245 4.0 15.0 0.00 0.00 0.00 49 1008.5
20260508200504 66 242 4.0 15.0 0.00 0.00 0.00 49 1008.5
20260508200004 66 252 4.0 12.0 0.00 0.00 0.00 50 1008.6
20260508195504 66 255 3.0 8.0 0.00 0.00 0.00 53 1008.6
20260508195003 66 229 3.0 7.0 0.00 0.00 0.00 52 1008.7
20260508194504 66 235 4.0 9.0 0.00 0.00 0.00 52 1008.7
20260508194004 66 237 3.0 9.0 0.00 0.00 0.00 54 1008.8
20260508193504 66 231 4.0 11.0 0.00 0.00 0.00 53 1008.8
20260508193004 66 231 4.0 11.0 0.00 0.00 0.00 53 1008.9
20260508192503 66 228 4.0 11.0 0.00 0.00 0.00 53 1009.0
20260508192003 65 222 4.0 11.0 0.00 0.00 0.00 54 1009.2
20260508191504 65 218 4.0 12.0 0.00 0.00 0.00 52 1009.3
20260508191003 65 223 5.0 12.0 0.00 0.00 0.00 54 1009.3
20260508190503 65 223 5.0 13.0 0.00 0.00 0.00 52 1009.3
20260508190004 65 231 4.0 13.0 0.00 0.00 0.00 54 1009.5
20260508185505 65 235 4.0 10.0 0.00 0.00 0.00 53 1009.6
20260508185004 64 230 4.0 9.0 0.00 0.00 0.00 54 1009.8
20260508184504 64 243 5.0 15.0 0.00 0.00 0.00 54 1009.9
20260508184003 64 249 7.0 15.0 0.00 0.00 0.00 53 1010.0
20260508183503 64 249 7.0 18.0 0.00 0.00 0.00 52 1010.1
20260508183004 64 253 6.0 18.0 0.00 0.00 0.00 52 1010.1
20260508182504 64 253 4.0 12.0 0.00 0.00 0.00 53 1010.1
20260508182004 64 231 4.0 14.0 0.00 0.00 0.00 53 1010.1
20260508181503 64 228 5.0 16.0 0.00 0.00 0.00 52 1010.1
20260508181003 64 235 6.0 16.0 0.00 0.00 0.00 51 1010.2
20260508180505 64 237 7.0 16.0 0.00 0.00 0.00 52 1010.2
20260508180004 64 240 8.0 15.0 0.00 0.00 0.00 50 1010.2
20260508175504 65 236 7.0 15.0 0.00 0.00 0.00 51 1010.2
20260508175003 65 234 5.0 15.0 0.00 0.00 0.00 51 1010.3
20260508174503 65 242 6.0 14.0 0.00 0.00 0.00 50 1010.3
20260508174003 65 244 6.0 17.0 0.00 0.00 0.00 49 1010.4
20260508173503 66 237 6.0 17.0 0.00 0.00 0.00 47 1010.5
20260508173004 67 245 7.0 16.0 0.00 0.00 0.00 46 1010.6
20260508172504 67 236 7.0 16.0 0.00 0.00 0.00 45 1010.6
20260508172003 68 217 7.0 16.0 0.00 0.00 0.00 46 1010.7
20260508171503 68 220 8.0 18.0 0.00 0.00 0.00 45 1010.6
20260508171005 69 222 8.0 18.0 0.00 0.00 0.00 45 1010.6
20260508170504 69 216 7.0 16.0 0.00 0.00 0.00 45 1010.7
20260508170003 69 209 7.0 16.0 0.00 0.00 0.00 49 1010.7
20260508165504 68 215 6.0 15.0 0.00 0.00 0.00 48 1010.8
20260508165004 68 229 7.0 18.0 0.00 0.00 0.00 51 1010.9
20260508164504 67 230 8.0 18.0 0.00 0.00 0.00 50 1010.9
20260508164004 66 227 7.0 15.0 0.00 0.00 0.00 49 1011.0
20260508163503 66 222 7.0 16.0 0.00 0.00 0.00 47 1011.2
20260508163003 66 229 6.0 16.0 0.00 0.00 0.00 48 1011.2
20260508162503 66 246 9.0 17.0 0.00 0.00 0.00 47 1011.3
20260508162003 66 253 9.0 17.0 0.00 0.00 0.00 45 1011.4
20260508161504 66 254 9.0 22.0 0.00 0.00 0.00 47 1011.5
20260508161003 66 252 10.0 22.0 0.00 0.00 0.00 47 1011.4
20260508160503 66 245 10.0 20.0 0.00 0.00 0.00 46 1011.5
20260508160003 66 238 9.0 20.0 0.00 0.00 0.00 49 1011.5
20260508155504 65 242 10.0 19.0 0.00 0.00 0.00 48 1011.6
20260508155004 65 243 9.0 19.0 0.00 0.00 0.00 47 1011.6
20260508154503 65 246 8.0 23.0 0.00 0.00 0.00 48 1011.6
20260508154003 65 247 10.0 23.0 0.00 0.00 0.00 48 1011.5
20260508153503 65 247 9.0 19.0 0.00 0.00 0.00 49 1011.5
20260508153004 65 238 8.0 17.0 0.00 0.00 0.00 49 1011.6
20260508152504 64 231 7.0 15.0 0.00 0.00 0.00 48 1011.7
20260508152004 64 238 5.0 15.0 0.00 0.00 0.00 48 1011.7
20260508151503 65 246 6.0 20.0 0.00 0.00 0.00 49 1011.7
20260508151003 65 253 8.0 20.0 0.00 0.00 0.00 48 1011.7
20260508150503 65 257 8.0 20.0 0.00 0.00 0.00 49 1011.7
20260508150004 65 256 8.0 20.0 0.00 0.00 0.00 47 1011.7
20260508145503 65 253 7.0 16.0 0.00 0.00 0.00 48 1011.7
20260508145003 64 248 7.0 17.0 0.00 0.00 0.00 51 1011.8
20260508144505 64 249 8.0 17.0 0.00 0.00 0.00 51 1011.8
20260508144003 63 256 9.0 18.0 0.00 0.00 0.00 50 1011.9
20260508143503 63 257 11.0 21.0 0.00 0.00 0.00 50 1012.0
20260508143004 63 255 10.0 21.0 0.00 0.00 0.00 50 1012.1
20260508142504 62 261 7.0 18.0 0.00 0.00 0.00 51 1012.2
20260508142005 62 264 7.0 16.0 0.00 0.00 0.00 52 1012.2
20260508141503 62 264 6.0 16.0 0.00 0.00 0.00 53 1012.2
20260508141004 61 250 4.0 13.0 0.00 0.00 0.00 55 1012.3
20260508140503 60 239 6.0 13.0 0.00 0.00 0.00 54 1012.3
20260508140004 60 261 6.0 14.0 0.00 0.00 0.00 54 1012.3
20260508135505 60 266 5.0 14.0 0.00 0.00 0.00 55 1012.4
20260508135005 59 251 7.0 16.0 0.00 0.00 0.00 54 1012.5
20260508134503 59 250 7.0 16.0 0.00 0.00 0.00 53 1012.4
20260508134003 58 256 6.0 13.0 0.00 0.00 0.00 55 1012.4
20260508133504 58 251 6.0 15.0 0.00 0.00 0.00 56 1012.5
20260508133003 58 256 7.0 15.0 0.00 0.00 0.00 56 1012.5
20260508132504 57 264 7.0 17.0 0.00 0.00 0.00 56 1012.6
20260508132004 57 263 5.0 17.0 0.00 0.00 0.00 57 1012.6
20260508131503 56 265 5.0 12.0 0.00 0.00 0.00 58 1012.7
20260508131004 56 258 5.0 13.0 0.00 0.00 0.00 58 1012.7
20260508130504 56 251 6.0 16.0 0.00 0.00 0.00 58 1012.6
20260508130005 55 259 5.0 16.0 0.00 0.00 0.00 58 1012.6
20260508125504 55 262 4.0 11.0 0.00 0.00 0.00 60 1012.6
20260508125004 54 252 4.0 11.0 0.00 0.00 0.00 61 1012.6
20260508124504 54 252 5.0 11.0 0.00 0.00 0.00 60 1012.6
20260508124003 54 247 7.0 14.0 0.00 0.00 0.00 60 1012.4
20260508123504 53 239 6.0 14.0 0.00 0.00 0.00 61 1012.5
20260508123004 53 230 5.0 15.0 0.00 0.00 0.00 62 1012.3
20260508122504 52 243 6.0 15.0 0.00 0.00 0.00 63 1012.2
20260508122003 52 255 7.0 20.0 0.00 0.00 0.00 63 1012.3
20260508121504 51 248 5.0 20.0 0.00 0.00 0.00 64 1012.5
20260508121004 51 233 5.0 12.0 0.00 0.00 0.00 65 1012.4
20260508120505 50 233 5.0 12.0 0.00 0.00 0.00 65 1012.4
20260508120003 50 233 5.0 12.0 0.00 0.00 0.00 66 1012.3
20260508115505 50 233 5.0 12.0 0.00 0.00 0.00 67 1012.4
20260508115005 49 233 5.0 12.0 0.00 0.00 0.00 67 1012.4
20260508114504 49 233 5.0 12.0 0.00 0.00 0.00 67 1012.3
20260508114003 49 233 5.0 12.0 0.00 0.00 0.00 67 1012.3
20260508113504 49 233 5.0 12.0 0.00 0.00 0.00 67 1012.2
20260508113005 48 233 5.0 12.0 0.00 0.00 0.00 67 1012.3
20260508112504 48 233 5.0 12.0 0.00 0.00 0.00 67 1012.2
20260508112003 48 233 5.0 12.0 0.00 0.00 0.00 68 1012.2
20260508111503 48 233 5.0 12.0 0.00 0.00 0.00 68 1012.2
20260508111003 48 233 5.0 12.0 0.00 0.00 0.00 68 1012.2
20260508110505 48 233 5.0 12.0 0.00 0.00 0.00 68 1012.2
20260508110004 48 233 5.0 12.0 0.00 0.00 0.00 68 1012.2
20260508105503 48 233 5.0 12.0 0.00 0.00 0.00 68 1012.1
20260508105004 48 233 5.0 12.0 0.00 0.00 0.00 68 1012.1
20260508104504 48 233 5.0 12.0 0.00 0.00 0.00 68 1012.0
20260508104003 48 233 5.0 12.0 0.00 0.00 0.00 67 1012.0
20260508103504 48 233 5.0 12.0 0.00 0.00 0.00 67 1012.0
20260508103004 49 233 5.0 12.0 0.00 0.00 0.00 67 1012.0
20260508102504 49 233 5.0 12.0 0.00 0.00 0.00 66 1012.0
20260508102005 49 233 5.0 12.0 0.00 0.00 0.00 66 1012.0
20260508101505 49 233 5.0 12.0 0.00 0.00 0.00 66 1012.0
20260508101004 50 233 5.0 12.0 0.00 0.00 0.00 66 1012.0
20260508100503 50 233 5.0 12.0 0.00 0.00 0.00 65 1011.9
20260508100003 50 233 5.0 12.0 0.00 0.00 0.00 65 1012.1
20260508095503 50 233 5.0 12.0 0.00 0.00 0.00 64 1012.1
20260508095006 50 233 5.0 12.0 0.00 0.00 0.00 64 1012.0
20260508094505 51 233 5.0 12.0 0.00 0.00 0.00 63 1012.1
20260508094004 51 233 5.0 12.0 0.00 0.00 0.00 63 1012.0
20260508093503 51 233 5.0 12.0 0.00 0.00 0.00 62 1012.1
20260508093003 51 233 5.0 12.0 0.00 0.00 0.00 62 1012.0
20260508092504 52 233 5.0 12.0 0.00 0.00 0.00 61 1012.1
20260508092005 52 233 5.0 12.0 0.00 0.00 0.00 61 1012.1
20260508091504 52 233 5.0 12.0 0.00 0.00 0.00 60 1012.1
20260508091003 52 233 5.0 12.0 0.00 0.00 0.00 60 1012.0
20260508090505 52 233 5.0 12.0 0.00 0.00 0.00 60 1012.0
20260508090003 53 233 5.0 12.0 0.00 0.00 0.00 60 1012.1
20260508085503 53 233 5.0 12.0 0.00 0.00 0.00 60 1012.0
20260508085005 53 233 5.0 12.0 0.00 0.00 0.00 60 1012.1
20260508084505 53 233 5.0 12.0 0.00 0.00 0.00 60 1012.3
20260508084003 53 233 5.0 12.0 0.00 0.00 0.00 60 1012.3
20260508083505 53 233 5.0 12.0 0.00 0.00 0.00 60 1012.3
20260508083003 53 233 5.0 12.0 0.00 0.00 0.00 60 1012.3
20260508082503 53 233 5.0 12.0 0.00 0.00 0.00 60 1012.4
20260508082004 53 233 5.0 12.0 0.00 0.00 0.00 59 1012.3
20260508081504 53 233 5.0 12.0 0.00 0.00 0.00 60 1012.4
20260508081003 53 233 5.0 12.0 0.00 0.00 0.00 59 1012.5
20260508080503 54 233 5.0 12.0 0.00 0.00 0.00 59 1012.6
20260508080003 54 233 5.0 12.0 0.00 0.00 0.00 59 1012.7
20260508075503 54 233 5.0 12.0 0.00 0.00 0.00 59 1012.7
20260508075003 54 233 5.0 12.0 0.00 0.00 0.00 59 1012.7
20260508074504 54 233 5.0 12.0 0.00 0.00 0.00 59 1012.8
20260508074004 54 233 5.0 12.0 0.00 0.00 0.00 58 1012.7
20260508073503 54 233 5.0 12.0 0.00 0.00 0.00 58 1012.6
20260508073003 54 233 5.0 12.0 0.00 0.00 0.00 58 1012.5
20260508072503 54 233 5.0 12.0 0.00 0.00 0.00 57 1012.6
20260508072004 54 233 5.0 12.0 0.00 0.00 0.00 56 1012.7
20260508071504 53 233 5.0 12.0 0.00 0.00 0.00 57 1012.6
20260508071003 53 233 5.0 12.0 0.00 0.00 0.00 57 1012.7
20260508070503 53 233 5.0 12.0 0.00 0.00 0.00 57 1012.7
20260508070003 53 233 5.0 12.0 0.00 0.00 0.00 57 1012.6
20260508065504 52 233 5.0 12.0 0.00 0.00 0.00 57 1012.6
20260508065005 52 233 5.0 12.0 0.00 0.00 0.00 59 1012.6
20260508064504 52 233 5.0 12.0 0.00 0.00 0.00 59 1012.7
20260508064003 52 239 5.0 12.0 0.00 0.00 0.00 59 1012.8
20260508063503 51 241 5.0 12.0 0.00 0.00 0.00 60 1012.9
20260508063003 51 243 3.0 12.0 0.00 0.00 0.00 63 1012.9
20260508062504 51 238 4.0 12.0 0.00 0.00 0.00 63 1012.9
20260508062004 51 239 4.0 12.0 0.00 0.00 0.00 63 1013.0
20260508061503 51 246 3.0 9.0 0.00 0.00 0.00 65 1013.0
20260508061003 50 245 3.0 8.0 0.00 0.00 0.00 65 1013.0
20260508060503 50 241 2.0 6.0 0.00 0.00 0.00 66 1013.0
20260508060003 50 241 2.0 5.0 0.00 0.00 0.00 67 1013.0
20260508055503 50 241 3.0 6.0 0.00 0.00 0.00 67 1012.9
20260508055004 50 241 3.0 7.0 0.00 0.00 0.00 69 1012.9
20260508054504 50 237 3.0 7.0 0.00 0.00 0.00 69 1012.9
20260508054005 50 231 2.0 6.0 0.00 0.00 0.00 70 1012.9
20260508053503 50 232 2.0 6.0 0.00 0.00 0.00 71 1012.9
20260508053003 50 233 2.0 5.0 0.00 0.00 0.00 71 1012.9
20260508052504 50 232 2.0 6.0 0.00 0.00 0.00 71 1012.8
20260508052004 50 232 3.0 6.0 0.00 0.00 0.00 71 1012.8
20260508051504 50 235 3.0 6.0 0.00 0.00 0.00 71 1012.8
20260508051003 50 239 2.0 8.0 0.00 0.00 0.00 72 1012.8
20260508050503 50 243 2.0 8.0 0.00 0.00 0.00 72 1012.9
20260508050006 50 239 2.0 6.0 0.00 0.00 0.00 72 1012.9
20260508045503 50 233 3.0 6.0 0.00 0.00 0.00 72 1013.0
20260508045003 50 228 2.0 5.0 0.00 0.00 0.00 72 1013.0
20260508044504 50 227 3.0 6.0 0.00 0.00 0.00 72 1012.9
20260508044004 50 226 3.0 6.0 0.00 0.00 0.00 72 1012.8
20260508043504 50 224 2.0 6.0 0.00 0.00 0.00 72 1012.9
20260508043005 50 224 2.0 6.0 0.00 0.00 0.00 73 1013.0
20260508042503 50 224 3.0 7.0 0.00 0.00 0.00 73 1013.0
20260508042004 50 229 3.0 8.0 0.00 0.00 0.00 73 1012.9
20260508041504 50 238 3.0 8.0 0.00 0.00 0.00 74 1012.8
20260508041004 50 242 3.0 6.0 0.00 0.00 0.00 74 1012.9
20260508040504 50 241 2.0 6.0 0.00 0.00 0.00 75 1012.9
20260508040003 50 241 2.0 6.0 0.00 0.00 0.00 75 1012.9
20260508035504 50 240 2.0 6.0 0.00 0.00 0.00 75 1012.8
20260508035003 50 241 2.0 6.0 0.00 0.00 0.00 75 1012.9
20260508034504 50 243 3.0 6.0 0.00 0.00 0.00 76 1012.8
20260508034003 50 241 3.0 7.0 0.00 0.00 0.00 76 1012.8
20260508033505 50 237 3.0 7.0 0.00 0.00 0.00 76 1012.8
20260508033005 50 238 3.0 6.0 0.00 0.00 0.00 76 1012.9
20260508032503 50 243 3.0 6.0 0.00 0.00 0.00 76 1012.9
20260508032004 50 246 2.0 6.0 0.00 0.00 0.00 76 1012.9
20260508031504 50 246 2.0 6.0 0.00 0.00 0.00 75 1013.0
20260508031003 49 245 3.0 8.0 0.00 0.00 0.00 75 1013.1
20260508030503 49 245 3.0 8.0 0.00 0.00 0.00 74 1013.0
20260508030005 49 245 3.0 6.0 0.00 0.00 0.00 74 1013.0
20260508025503 49 247 3.0 6.0 0.00 0.00 0.00 74 1013.0
20260508025004 50 250 3.0 6.0 0.00 0.00 0.00 74 1013.0
20260508024504 50 252 3.0 5.0 0.00 0.00 0.00 74 1013.0
20260508024003 50 252 2.0 6.0 0.00 0.00 0.00 74 1012.9
20260508023503 50 252 3.0 6.0 0.00 0.00 0.00 74 1012.9
20260508023004 50 259 3.0 6.0 0.00 0.00 0.00 73 1012.8
20260508022504 50 271 2.0 5.0 0.00 0.00 0.00 73 1012.8
20260508022005 50 281 2.0 4.0 0.00 0.00 0.00 74 1012.8
20260508021503 50 281 2.0 4.0 0.00 0.00 0.00 73 1012.7
20260508021003 50 281 2.0 4.0 0.00 0.00 0.00 73 1012.7
20260508020504 50 281 2.0 4.0 0.00 0.00 0.00 72 1012.8
20260508020004 51 298 2.0 4.0 0.00 0.00 0.00 72 1012.8
20260508015504 51 316 2.0 4.0 0.00 0.00 0.00 72 1012.6
20260508015004 51 321 2.0 3.0 0.00 0.00 0.00 71 1012.6
20260508014504 51 321 1.0 4.0 0.00 0.00 0.00 70 1012.6
20260508014003 51 321 1.0 4.0 0.00 0.00 0.00 70 1012.5
20260508013504 52 321 1.0 3.0 0.00 0.00 0.00 69 1012.5
20260508013004 52 320 0.0 3.0 0.00 0.00 0.00 68 1012.4
20260508012503 52 321 1.0 4.0 0.00 0.00 0.00 68 1012.3
20260508012004 52 321 1.0 4.0 0.00 0.00 0.00 67 1012.4
20260508011503 53 321 1.0 3.0 0.00 0.00 0.00 66 1012.5
20260508011004 53 321 1.0 3.0 0.00 0.00 0.00 65 1012.4
20260508010504 53 321 1.0 3.0 0.00 0.00 0.00 65 1012.4
20260508010004 54 320 0.0 2.0 0.00 0.00 0.00 64 1012.5
20260508005503 54 321 1.0 2.0 0.00 0.00 0.00 64 1012.6
20260508005004 54 321 0.0 2.0 0.00 0.00 0.00 63 1012.5
20260508004504 54 320 0.0 2.0 0.00 0.00 0.00 63 1012.5
20260508004005 54 321 1.0 4.0 0.00 0.00 0.00 63 1012.7
20260508003504 54 321 1.0 4.0 0.00 0.00 0.00 63 1012.8
20260508003004 54 321 1.0 4.0 0.00 0.00 0.00 64 1012.9
20260508002503 54 321 1.0 4.0 0.00 0.00 0.00 63 1012.8
20260508002003 54 321 1.0 4.0 0.00 0.00 0.00 62 1012.9
20260508001505 54 321 0.0 3.0 0.00 0.00 0.00 62 1012.9
20260508001003 55 321 1.0 4.0 0.00 0.00 0.00 62 1012.8
20260508000503 55 321 1.0 4.0 0.00 0.00 0.00 62 1012.8
20260508000003 55 321 1.0 4.0 0.00 0.00 0.00 61 1012.9
20260507235504 55 321 1.0 4.0 0.00 0.00 0.00 61 1013.0
20260507235003 55 321 1.0 3.0 0.00 0.00 0.00 62 1012.9
20260507234503 55 324 1.0 8.0 0.00 0.00 0.00 61 1012.9
20260507234003 55 325 1.0 8.0 0.00 0.00 0.00 61 1013.0
20260507233505 55 330 0.0 3.0 0.00 0.00 0.00 61 1013.0
20260507233004 55 325 1.0 10.0 0.00 0.00 0.00 61 1012.9
20260507232504 55 325 3.0 10.0 0.00 0.00 0.00 61 1012.9
20260507232003 55 324 3.0 10.0 0.00 0.00 0.00 60 1013.1